Location: Bijele Vode
(45.2833°N, 16.2000°E)
Time: 07:21:01
(UTC+00:00)

Lacrosse 5 rocket - Pass Details

Date: 23 January 2021
Orbit: 465 x 630 km, 57.0° (Epoch: 04 March)

Event Time Altitude Azimuth Distance (km) Brightness Sun altitude
Exits shadow 05:00:44 28° 283° (WNW) 982 2.0 -14.7°
Maximum altitude 05:02:21 44° 228° (SW) 691 1.5 -14.4°
Drops below altitude 10° 05:05:54 10° 155° (SSE) 1,656 4.3 -13.8°
Sets 05:08:03 0° 149° (SSE) 2,513 5.4 -13.5°
